Location: Sungai Apap
(2.6167°N, 113.3833°E)
Time: 22:53:48
(UTC+00:00)

Cosmos 1892 Rocket - Pass Details

Date: 06 August 2024
Orbit: 602 x 629 km, 82.5° (Epoch: 12 September)

Event Time Altitude Azimuth Distance (km) Brightness Sun altitude
Exits shadow 12:17:21 61° 195° (SSW) 709 3.7 -24.3°
Maximum altitude 12:18:06 84° 273° (W) 631 3.5 -24.4°
Drops below altitude 10° 12:22:30 10° 2° (N) 1,981 6.3 -25.5°
Sets 12:24:43 0° 3° (N) 2,880 7.2 -26.0°
